GFSSW_sfc_dewp_132.txt.gz
Dewpoint
57 57 57 58 58 59 59 60 60 62 63 63 63 63 63 63 64 60 56 58 57 62 59 50 48 51 52 52 52 42 45 41 38 35 34 29 35 40 46 50 51 54 51 53 60
56 56 56 57 58 58 59 59 60 60 60 62 63 62 63 63 60 58 60 62 62 63 53 49 46 51 50 51 52 45 41 41 39 35 29 28 33 39 45 48 49 51 54 57 61
56 56 56 57 56 58 58 59 59 59 60 60 61 62 62 62 56 56 62 62 63 63 54 50 47 46 47 51 50 49 43 41 42 33 30 30 31 30 42 43 44 49 53 58 60
56 56 56 56 57 58 58 58 59 60 59 60 61 61 61 58 45 56 62 63 63 63 54 46 44 45 44 47 50 47 49 47 41 40 34 30 29 29 41 41 40 46 55 58 58
55 55 55 55 57 57 57 58 58 59 59 60 60 60 59 54 49 56 62 63 62 60 55 47 44 44 41 45 49 48 48 50 50 49 47 37 31 27 28 33 49 53 56 57 58
55 55 55 55 56 57 57 57 57 58 59 59 59 59 51 49 56 57 60 60 60 57 55 48 45 46 44 45 44 47 49 48 49 50 45 42 39 39 30 50 52 55 55 56 57
55 55 54 55 56 56 56 56 57 57 58 58 57 51 47 48 57 55 58 58 59 58 53 52 49 47 47 45 46 47 44 45 46 48 49 39 42 35 43 46 49 53 54 55 56
54 54 54 54 55 56 56 56 55 56 56 57 57 51 44 47 49 47 58 57 59 58 54 54 54 50 46 47 46 44 42 39 43 47 49 43 43 44 42 44 43 51 53 54 55
54 54 54 54 54 55 55 56 56 56 55 55 50 46 41 49 45 46 57 55 56 56 54 56 55 50 45 42 40 41 34 38 40 46 44 44 43 45 43 42 41 45 51 53 55
54 53 54 53 53 54 54 55 55 54 52 51 50 41 44 41 46 49 56 55 52 52 52 52 51 47 45 41 35 34 36 37 38 40 41 38 45 46 40 41 41 42 49 52 53
54 53 54 53 53 53 53 48 43 42 45 39 40 39 42 45 49 48 55 52 51 50 46 49 45 41 43 42 37 37 35 36 39 41 38 40 40 42 43 34 34 40 44 50 52
54 53 53 53 53 54 48 41 38 39 38 43 43 43 44 45 43 47 52 47 47 43 46 45 41 43 42 43 42 37 36 35 38 39 38 38 38 39 39 36 35 34 33 40 49
52 53 53 53 53 51 45 41 44 41 34 38 42 41 42 42 41 41 48 46 43 42 43 40 39 42 42 42 41 41 37 36 36 35 37 36 35 35 37 39 39 37 37 35 37
50 53 53 53 50 47 43 45 46 42 29 31 37 39 42 42 38 44 47 44 44 40 41 41 40 40 41 40 41 37 39 38 37 35 33 36 32 35 37 36 37 39 37 36 33
46 53 53 52 46 44 43 47 46 39 10 26 38 41 43 36 37 39 47 45 38 40 43 38 41 40 40 40 41 39 40 39 39 37 34 32 33 33 35 37 38 37 37 38 36
48 53 53 49 47 45 47 45 42 27 14 27 38 37 37 38 38 43 44 44 43 40 40 40 40 41 40 41 41 42 41 39 38 37 31 29 32 30 32 35 37 38 39 37 38
49 53 50 46 43 47 47 39 27 17 21 30 33 36 33 33 34 38 37 39 36 33 34 36 41 40 42 41 42 40 37 32 31 32 26 28 32 29 35 36 36 37 37 39 40
51 52 47 44 47 46 42 29 8 14 21 32 35 34 30 33 32 36 36 33 36 35 35 30 28 40 41 40 39 39 36 30 24 24 22 31 30 32 37 37 37 35 35 34 37
52 48 45 47 47 43 36 21 14 16 26 32 34 31 32 32 30 31 32 32 32 36 33 34 31 39 42 39 39 38 35 33 27 16 23 29 31 31 34 34 34 33 36 36 35
46 44 44 47 46 41 30 17 18 26 33 33 25 29 24 31 32 29 28 29 33 34 39 38 33 39 39 40 38 38 38 33 32 20 20 25 26 28 31 33 34 34 32 33 36
44 38 45 47 45 36 23 20 24 33 32 28 27 31 33 31 32 32 31 29 30 33 36 40 36 36 39 38 36 37 35 35 31 27 23 20 20 29 31 31 34 34 34 34 36
39 32 46 46 34 31 24 25 31 33 34 32 31 30 30 33 33 32 30 32 33 33 32 34 37 33 35 37 39 36 34 34 29 27 27 25 23 29 30 32 28 33 31 30 31
35 34 43 42 27 29 26 28 30 31 32 31 29 30 31 30 27 33 35 36 35 34 33 34 33 30 33 35 36 35 35 36 33 29 27 27 24 26 19 17 20 26 26 30 28
36 30 32 33 23 27 22 24 27 32 32 31 30 31 31 30 31 30 31 36 37 34 38 38 32 31 28 30 36 35 35 34 34 30 28 27 27 28 28 16 19 20 21 25 24
33 31 32 28 21 24 21 24 24 27 31 32 31 29 27 25 29 29 31 31 33 40 37 36 33 33 30 32 35 36 34 34 33 32 29 27 27 28 29 27 18 21 19 21 22
30 30 27 29 25 24 19 17 21 19 29 29 26 30 29 25 23 24 27 27 27 35 37 38 34 36 31 35 32 35 35 35 35 34 32 31 29 30 32 33 18 18 19 20 22
33 32 31 28 19 20 21 19 23 26 29 30 30 28 28 28 29 29 29 30 31 32 34 35 36 32 30 32 31 31 35 35 35 35 35 32 33 33 29 25 27 22 19 20 20

GFSSW_sfc_dewp_138.txt.gz
Dewpoint
58 57 58 58 58 58 59 60 61 62 62 63 64 63 63 64 63 62 58 58 57 63 60 52 51 52 53 49 47 51 45 42 42 41 38 30 35 40 46 46 52 53 49 53 60
58 58 58 58 58 58 58 59 60 61 62 62 63 62 63 62 60 59 61 62 64 63 54 51 49 50 49 50 48 46 44 42 43 43 41 33 31 37 42 45 47 51 55 57 61
57 57 57 58 58 58 58 59 59 60 61 61 61 62 62 61 56 55 64 64 64 60 54 52 49 48 45 51 49 46 40 42 44 44 44 43 41 36 40 40 42 44 50 56 60
57 57 57 57 57 57 58 58 59 59 60 60 61 62 61 57 47 54 64 64 63 58 52 50 48 45 39 42 50 46 45 44 42 42 40 43 44 35 35 37 42 45 49 56 59
56 57 57 57 57 57 57 58 58 58 59 59 60 61 58 53 50 57 63 63 60 59 55 49 47 46 40 40 47 48 45 47 47 39 36 39 36 38 34 36 40 41 47 54 57
55 56 56 56 56 57 57 57 58 58 59 59 59 60 53 48 53 56 60 61 58 57 57 55 50 50 47 43 44 41 42 43 49 48 47 44 42 41 41 40 37 42 46 51 55
54 55 56 56 56 56 57 57 57 58 58 58 58 54 51 47 55 57 59 60 59 57 55 55 55 53 51 46 47 46 41 43 43 46 48 49 46 45 43 40 39 44 45 50 54
53 54 55 56 55 56 56 57 56 57 56 57 56 52 47 50 53 55 55 57 59 58 56 56 55 52 50 51 49 46 42 36 36 45 44 44 27 29 44 44 43 43 43 48 52
52 53 54 55 55 55 56 56 56 56 56 56 51 47 41 51 50 51 55 52 57 56 56 57 56 52 50 46 43 45 39 38 38 45 44 44 31 36 38 42 45 46 45 45 48
50 52 53 54 55 54 55 56 55 54 52 50 49 41 42 41 45 49 53 53 52 53 52 53 52 48 47 44 36 36 38 38 36 39 45 40 39 38 42 44 44 43 43 45 47
50 51 52 54 55 55 54 51 47 46 47 42 42 37 39 43 46 47 50 51 50 50 45 49 45 41 41 43 41 39 37 36 37 39 41 37 38 37 37 38 41 42 45 45 45
49 50 52 53 53 55 50 45 43 44 42 43 43 42 43 44 39 44 49 43 45 42 44 43 39 40 42 44 44 38 37 36 37 38 40 37 37 37 37 37 39 40 41 44 45
49 50 51 52 52 53 48 46 45 45 38 40 42 40 41 42 38 40 46 43 41 38 39 37 36 40 40 40 43 40 37 37 35 36 38 37 34 34 34 35 36 38 38 41 44
49 50 50 51 48 51 46 44 45 44 33 35 38 40 42 41 36 42 46 41 40 38 36 38 36 37 41 40 42 39 41 39 38 37 34 35 29 32 31 32 35 38 38 37 39
48 50 50 51 46 47 47 42 43 43 21 32 36 41 42 35 36 42 46 42 35 36 38 35 35 40 39 38 42 40 41 41 39 38 36 35 33 32 32 32 31 31 35 37 38
48 49 50 49 47 48 44 42 43 30 21 32 36 38 38 38 36 42 43 41 37 34 34 33 38 38 36 38 43 43 42 41 40 39 33 34 33 30 30 31 32 33 32 35 37
48 49 48 48 41 50 46 41 29 24 29 31 33 36 33 34 35 37 38 37 31 30 29 29 32 34 41 36 40 41 38 32 31 30 30 28 32 32 31 31 31 30 30 32 35
48 49 48 46 49 48 44 34 24 26 28 31 30 33 30 32 33 35 36 32 33 29 26 25 23 32 35 34 35 38 34 28 24 27 26 31 28 28 32 33 33 32 32 35 37
48 47 46 45 50 47 38 28 27 25 27 29 30 28 31 31 29 32 32 31 31 33 24 24 21 32 37 35 33 33 36 34 29 26 27 25 27 31 34 34 34 33 31 33 36
45 43 44 46 48 44 34 29 24 27 31 30 26 27 27 31 27 29 30 29 29 32 31 25 21 25 34 39 39 38 38 34 34 27 26 23 25 22 30 30 32 33 33 34 37
43 38 44 45 45 38 30 28 28 32 31 30 28 27 27 29 26 30 28 28 30 31 34 31 31 32 30 32 33 38 36 38 36 34 27 23 21 23 25 27 30 33 34 34 36
37 32 44 45 34 33 31 30 33 31 32 32 32 30 31 30 30 25 28 24 28 30 30 33 33 29 28 36 35 36 35 36 32 31 33 27 26 27 29 30 29 32 34 33 34
36 37 46 44 30 30 31 31 32 30 29 30 30 32 31 28 28 28 28 30 34 31 29 32 31 26 30 33 37 34 34 36 38 35 32 30 26 28 28 29 31 31 31 27 28
35 32 35 37 36 32 31 31 31 33 31 30 31 32 32 30 30 30 33 34 36 33 37 37 27 25 21 26 34 35 35 35 35 33 33 31 29 30 28 26 27 27 26 25 26
38 32 32 29 31 29 30 31 30 29 31 30 28 29 28 30 29 30 31 32 34 38 35 38 32 30 27 28 29 30 30 34 35 35 33 32 31 32 32 31 31 30 30 26 26
35 34 33 33 31 28 30 31 28 30 30 26 26 27 23 28 26 28 29 27 19 32 29 34 29 24 26 24 24 24 26 27 31 34 36 33 32 33 33 32 31 31 30 30 30
34 35 33 30 30 28 28 27 29 28 30 29 28 27 24 24 27 28 27 28 30 29 32 31 33 31 24 24 25 27 29 29 29 29 31 32 37 36 36 35 35 34 33 31 32

GFSSW_sfc_dewp_144.txt.gz
Dewpoint
59 59 59 59 59 59 59 59 59 61 61 62 63 63 63 64 63 62 57 58 58 62 60 53 50 50 50 49 51 47 42 40 40 38 39 35 35 41 44 43 48 50 51 54 61
59 59 59 59 59 59 59 59 59 61 61 62 62 63 63 63 61 58 62 64 63 61 55 53 48 48 47 46 48 44 39 36 37 38 39 38 36 37 41 41 43 50 54 58 61
58 58 58 58 58 59 59 59 59 60 61 61 62 62 63 62 57 53 63 64 62 60 55 53 51 47 46 46 46 46 41 38 35 37 41 43 42 37 37 38 40 42 52 58 60
57 58 58 58 58 59 59 59 59 60 60 61 61 61 61 58 43 53 64 64 63 57 55 52 50 46 44 42 43 43 43 41 41 40 42 41 42 42 38 39 42 41 50 56 59
56 57 57 58 58 58 59 58 59 59 59 60 61 61 58 52 50 60 64 64 59 57 54 51 49 47 43 41 40 40 42 44 43 42 42 43 41 39 40 42 42 42 43 52 56
55 56 57 57 58 58 58 58 58 58 59 59 59 60 54 48 51 56 59 60 57 55 54 53 50 49 46 44 40 41 42 41 42 41 43 43 43 42 41 41 42 41 40 41 51
54 55 56 57 57 57 57 58 58 58 58 59 58 55 51 46 50 50 57 58 58 56 53 55 53 49 49 44 47 45 42 42 40 39 40 40 39 41 44 43 42 42 42 37 41
53 54 55 56 57 57 57 57 57 57 57 58 57 53 45 49 50 51 54 55 57 56 56 57 56 54 51 50 47 43 42 38 40 39 38 38 35 37 35 40 43 43 43 42 43
53 53 54 55 56 57 57 57 57 57 56 56 50 49 42 50 48 50 53 51 54 57 57 57 56 52 51 46 43 43 39 38 38 39 39 37 36 39 38 31 26 31 40 41 43
52 52 53 54 54 56 56 56 56 55 51 48 48 45 45 42 45 50 51 52 52 55 54 53 51 48 46 45 37 38 40 39 38 38 38 38 37 38 40 40 36 30 29 31 35
51 52 52 53 54 55 55 53 48 45 47 42 41 41 37 41 44 47 49 50 51 49 44 48 44 40 41 43 41 42 41 38 37 38 37 37 39 39 40 39 38 36 34 34 34
50 51 51 52 53 54 53 48 44 45 42 43 41 42 39 40 40 44 47 46 46 41 44 43 40 39 41 44 43 42 41 39 38 39 39 39 38 39 40 39 38 36 36 35 34
49 50 50 51 52 51 49 50 47 45 41 42 42 41 40 39 38 41 46 44 41 40 41 37 36 40 40 39 38 41 38 38 37 38 39 38 37 37 38 38 37 38 37 37 36
49 50 50 50 48 47 47 51 52 47 35 37 40 40 40 39 36 37 46 43 41 37 37 38 38 36 37 38 39 36 38 37 37 38 34 39 33 36 35 34 36 36 37 37 37
49 49 50 49 43 43 45 50 52 48 23 38 38 43 40 37 36 35 40 44 38 37 38 33 35 36 36 36 36 33 36 36 37 37 37 35 35 31 34 32 32 33 36 37 36
48 49 49 48 46 44 50 50 49 32 22 34 39 38 38 37 34 37 39 42 39 37 37 35 35 34 35 37 37 39 39 39 38 37 32 32 34 32 34 33 32 32 33 34 35
48 49 48 46 41 47 49 46 31 24 32 32 34 37 35 35 34 35 36 37 31 30 29 31 32 32 34 34 35 37 36 30 29 29 28 26 32 32 33 34 31 32 32 34 35
48 48 47 45 46 48 46 35 25 29 31 35 34 35 33 34 35 35 33 32 33 29 27 26 24 29 32 34 33 35 34 29 23 24 25 30 31 32 35 35 35 34 34 35 35
45 44 45 46 46 47 39 27 28 30 33 34 34 31 32 33 33 33 32 30 30 30 23 24 23 25 29 34 34 32 34 34 30 27 30 29 33 34 35 32 32 32 33 34 35
43 41 41 45 47 44 33 30 32 33 32 34 30 30 30 32 29 31 31 30 30 30 27 21 20 23 21 30 33 32 38 34 34 25 22 27 27 25 28 28 27 30 31 33 35
42 37 42 46 46 38 28 30 32 34 31 31 28 31 28 31 27 30 28 28 30 29 29 27 26 23 29 23 24 26 27 30 30 32 27 25 24 25 24 25 28 30 31 32 34
39 31 44 46 33 32 30 33 36 34 31 30 30 29 29 30 28 29 27 26 29 29 27 28 29 25 25 26 27 25 25 25 24 20 23 25 23 23 23 24 26 29 31 33 34
33 36 45 42 27 30 32 33 35 34 30 29 29 30 28 29 26 28 27 28 29 29 29 29 29 23 23 25 27 31 30 31 31 28 26 25 25 27 28 29 29 30 30 32 31
34 31 35 37 35 32 32 31 32 36 30 30 28 28 29 28 27 27 26 29 30 29 36 33 27 24 18 19 24 25 29 30 30 28 28 31 29 28 30 29 29 33 33 34 31
33 32 33 28 30 33 34 32 32 32 34 31 29 28 27 27 26 25 26 27 31 34 32 32 26 27 25 24 22 20 25 32 30 29 27 25 25 25 29 33 34 34 32 31 32
34 34 35 31 31 33 34 33 31 31 32 30 28 28 28 27 28 26 26 26 27 29 31 35 28 30 25 28 28 27 27 26 26 31 33 32 31 30 29 30 30 29 29 29 30
41 41 37 35 34 33 31 33 30 30 29 31 28 28 28 28 30 29 27 30 31 29 30 33 29 28 23 25 25 23 22 21 20 20 21 22 24 24 22 24 27 28 27 29 32

GFSSW_sfc_dewp_147.txt.gz
Dewpoint
59 59 59 59 59 59 59 59 59 61 61 61 62 62 63 63 63 62 56 59 60 62 60 55 54 49 50 49 49 46 41 39 39 40 38 38 38 41 43 45 47 51 52 57 61
58 59 59 59 59 60 59 59 60 60 60 61 61 62 63 63 61 58 60 63 62 62 55 53 52 49 47 47 47 43 39 36 38 37 37 36 36 39 39 41 44 50 54 62 62
57 58 59 59 59 59 59 59 59 60 60 61 61 61 62 62 55 53 62 64 62 60 56 55 52 49 46 46 45 44 42 42 41 39 41 42 42 41 38 38 41 44 52 60 60
57 58 58 59 59 59 59 59 59 59 60 61 61 61 61 57 43 53 63 64 63 57 55 53 51 47 44 42 43 42 44 44 44 43 41 41 41 40 40 37 42 43 52 59 59
56 57 57 58 58 58 58 59 59 59 59 59 60 60 57 52 48 61 63 63 59 58 56 52 50 48 45 43 42 40 42 43 44 45 43 43 42 41 40 40 41 42 54 59 59
55 56 57 57 58 58 58 59 59 59 58 59 59 60 55 46 51 61 61 60 58 56 55 54 51 49 47 44 43 43 44 43 43 41 41 42 43 43 42 42 42 42 42 54 58
54 55 56 57 57 58 58 58 59 58 58 59 59 56 51 44 51 53 59 59 58 56 54 55 53 48 47 44 48 46 42 43 42 41 40 40 39 38 44 45 44 42 42 40 43
54 54 55 56 57 57 57 57 58 58 58 58 57 52 44 50 50 51 56 57 58 57 57 57 55 52 48 48 45 42 41 38 40 41 41 38 35 38 39 39 42 43 42 43 42
53 54 54 55 56 56 57 57 58 58 57 57 50 48 41 51 49 49 52 51 55 57 57 57 54 50 50 46 42 40 36 37 39 40 40 38 36 38 38 38 37 33 41 43 44
52 53 54 54 55 55 56 56 56 55 53 51 49 44 45 43 48 49 51 53 52 52 53 52 49 47 47 44 34 37 40 39 38 39 39 38 38 38 38 39 38 40 36 30 39
52 53 53 54 54 54 54 53 48 46 47 43 42 41 42 43 46 49 50 51 51 49 45 47 43 39 40 43 40 40 40 39 39 40 39 38 38 38 40 40 40 40 40 38 35
52 52 52 53 54 53 51 47 45 45 42 44 42 42 41 42 41 46 50 46 47 42 45 43 39 40 42 43 42 41 39 38 39 41 41 40 39 39 40 40 41 40 40 39 38
51 51 52 52 52 50 47 47 50 44 40 42 43 42 40 40 39 42 47 45 42 41 41 38 36 40 40 38 41 40 39 38 38 39 39 39 36 35 37 40 39 40 40 39 38
50 50 51 51 48 45 45 48 52 51 35 37 40 40 42 40 37 44 45 44 41 39 39 39 39 37 39 38 39 36 40 39 38 38 34 38 31 32 35 37 36 37 38 39 38
49 50 50 50 45 42 44 50 52 48 22 36 39 42 41 36 36 37 46 45 39 38 38 32 37 37 36 36 38 36 38 38 38 37 37 36 34 33 33 32 33 34 34 37 38
49 49 50 48 44 43 48 50 49 32 20 34 38 38 38 37 35 37 42 44 42 39 38 34 36 38 36 37 37 39 37 37 37 36 31 33 33 27 28 30 32 35 35 35 34
49 49 48 45 39 46 49 45 31 23 33 32 35 37 35 36 34 35 37 38 33 32 32 34 35 34 34 34 37 38 34 29 28 29 28 29 30 30 30 31 33 34 35 35 34
49 49 47 44 44 47 44 35 23 26 30 35 35 36 33 34 33 34 34 32 34 30 27 28 23 33 32 33 32 34 33 27 22 22 24 29 27 28 32 32 33 33 34 35 35
49 46 45 44 45 47 39 27 25 23 31 34 34 32 32 34 34 33 31 31 33 33 23 25 24 28 31 31 35 31 31 32 29 27 25 25 32 33 33 35 35 33 34 34 33
43 42 42 45 45 43 34 29 25 35 33 35 31 32 30 33 31 32 31 32 31 33 28 23 21 24 27 31 35 31 34 27 32 19 20 24 25 22 25 28 28 26 28 31 33
40 35 41 45 45 37 28 28 29 34 35 33 30 33 29 32 29 31 31 30 31 31 30 26 24 23 23 27 28 32 31 31 30 31 26 22 23 28 26 25 26 25 26 31 34
38 30 42 45 33 32 30 32 33 34 36 36 33 30 30 31 29 30 27 27 31 30 28 29 29 23 24 26 26 29 29 29 26 21 26 25 23 28 25 23 21 28 30 33 34
33 34 43 41 28 29 32 31 34 31 34 35 30 30 30 30 28 30 28 30 31 30 29 29 27 16 20 24 26 27 25 27 28 26 23 21 18 19 23 27 28 33 34 34 34
33 23 35 37 34 27 30 26 29 36 32 36 31 30 30 29 28 30 29 30 32 30 37 32 29 22 14 18 22 27 30 31 30 26 24 25 25 27 28 32 33 34 33 32 30
32 29 32 28 31 29 33 30 26 30 35 35 32 28 28 28 27 27 28 29 30 34 34 30 23 27 26 25 26 23 24 28 29 28 25 24 24 25 26 29 32 32 30 30 28
31 32 34 30 30 30 32 28 27 31 33 33 32 28 29 28 25 26 27 27 27 32 30 33 27 29 23 28 27 26 26 28 29 30 29 29 30 31 30 28 27 27 28 30 29
39 40 36 31 25 29 29 32 27 30 34 35 32 29 28 28 28 28 29 30 30 28 31 31 29 25 14 25 24 17 22 24 23 25 24 23 23 24 24 26 27 26 26 26 27